[[[{"header":{"parameterUnit":"kt","parameterCategory":2,"dx":1,"dy":1,"la1":30.253999710083008,"la2":30.299108505249023,"lo1":-89.0895004272461,"lo2":-89.04439544677734,"nx":28,"ny":28,"refTime":"2022-10-28T21:00:00:Z","depth":0,"parameterNumber":1,"parameterNumberName":"U-component_of_WINDS"},"data":[12.553,12.5731,12.5722,12.5946,12.5975,12.6125,12.6174,12.6237,12.6283,12.6458,12.6555,12.6563,12.6601,12.6712,12.6813,12.6813,12.6855,12.6935,12.6919,12.6579,12.6531,12.6485,12.6435,12.6946,12.6946,12.7271,12.7274,12.7277,12.528,12.5312,12.5429,12.5534,12.5633,12.5551,12.5627,12.5713,12.5848,12.5907,12.6003,12.6154,12.627,12.6281,12.639,12.6479,12.6443,12.6509,12.6498,12.6505,12.6142,12.609,12.6536,12.6536,12.6536,12.6535,12.6535,12.6535,12.4822,12.4944,12.5002,12.5128,12.5178,12.5248,12.5361,12.5368,12.5479,12.5595,12.5558,12.5709,12.5762,12.5886,12.5923,12.6038,12.5961,12.6027,12.6043,12.6058,12.6078,12.5603,12.6056,12.6055,12.6053,12.6052,12.6051,0,12.4481,12.4465,12.4576,12.4685,12.4775,12.4857,12.4929,12.4999,12.4954,12.5048,12.5181,12.5255,12.54,12.552,12.5618,12.5642,12.5559,12.5551,12.5595,12.5612,12.5616,12.5611,12.5016,12.5536,12.5532,12.5529,12.5526,12.5524,12.4014,12.4159,12.4214,12.4293,12.433,12.4458,12.4531,12.4482,12.4561,12.464,12.4748,12.487,12.4964,12.5176,12.5176,12.5283,12.5242,12.5442,12.5257,12.5269,12.5239,12.5229,12.5241,12.5477,12.5483,12.5488,12.5492,0,12.3751,12.3732,12.3952,12.399,12.4004,12.4157,12.4188,12.4306,12.4298,12.4459,12.4493,12.4479,12.4609,12.4577,12.4718,12.4696,12.494,12.4901,12.4921,12.4909,12.5082,12.5064,12.5654,12.5727,12.5203,12.5208,12.5212,0,12.3342,12.3533,12.3493,12.3621,12.3831,12.3775,12.3984,12.3997,12.4043,12.4169,12.4072,12.4192,12.4132,12.4247,12.4215,12.441,12.4437,12.443,12.4418,12.4436,12.4436,12.4471,12.4444,12.4392,12.4389,12.4387,12.4384,0,12.2928,12.3131,12.3341,12.3383,12.3442,12.354,12.3569,12.3619,12.369,12.3777,12.3822,12.3928,12.3984,12.4066,12.4024,12.39,12.4263,12.4082,12.4254,12.4256,12.4332,12.4327,12.4863,12.4381,12.438,12.4379,12.4378,0,12.2592,12.2686,12.2994,12.3038,12.3093,12.3231,12.3331,12.3442,12.3501,12.349,12.3558,12.3487,12.3658,12.348,12.3712,12.3561,12.3622,12.3631,12.3643,12.3651,12.3452,12.3753,12.4271,12.4321,12.3665,12.366,12.3654,0,12.2121,12.2427,12.238,12.2673,12.2808,12.2689,12.2841,12.2897,12.2895,12.3007,12.3003,12.3131,12.2993,12.3027,12.3148,12.3147,12.3344,12.312,12.3275,12.3281,12.3258,12.3737,12.3819,12.4163,12.3578,12.3586,12.3592,0,12.1753,12.1823,12.1879,12.1923,12.199,12.2103,12.2278,12.2393,12.247,12.2544,12.2686,12.2867,12.2767,12.2826,12.2779,12.2905,12.3209,12.2781,12.2781,12.2855,12.3538,12.3615,12.3674,12.3149,12.3158,12.3165,12.3531,0,12.1243,12.1393,12.1544,12.1647,12.1729,12.1911,12.1877,12.1968,12.1914,12.1907,12.2117,12.2152,12.2266,12.2325,12.2273,12.2574,12.2517,12.241,12.223,12.2547,12.2665,12.2715,12.2056,12.205,12.2046,12.2042,0,0,12.0794,12.1008,12.095,12.1118,12.1183,12.1055,12.1252,12.13,12.14,12.1447,12.1348,12.1607,12.1639,12.1896,12.1992,12.204,12.2089,12.1979,12.2397,12.2437,12.2474,12.2602,12.2654,12.2034,12.2032,12.203,12.2029,0,12.0599,12.0642,12.0839,12.0887,12.0955,12.0938,12.0987,12.103,12.1034,12.124,12.1127,12.1248,12.1458,12.1505,12.1557,12.195,12.1854,12.1988,12.2209,12.2352,12.2399,12.2439,12.2575,12.2625,12.2018,12.2018,12.2019,0,12.0227,12.0261,12.0353,12.0498,12.0541,12.0683,12.0488,12.0648,12.0751,12.0598,12.0803,12.0818,12.0879,12.1129,12.1239,12.1151,12.1643,12.1482,12.151,12.152,12.1656,12.1712,12.1761,12.111,12.1107,12.1104,0,0,12.0063,12.0202,12.022,12.0453,12.0488,12.0465,12.0537,12.049,12.055,12.0575,12.059,12.065,12.077,12.085,12.0961,12.1241,12.1246,12.1372,12.1415,12.145,12.1479,12.1625,12.168,12.1093,12.1093,12.1092,0,0,11.9982,12.0013,11.9948,12.0215,12.0278,12.0308,12.045,12.0371,12.0467,12.0441,12.0366,12.0379,12.0611,12.0629,12.0482,12.0895,12.0719,12.0753,12.0874,12.0927,12.097,12.0958,12.0283,0,0,0,0,0,11.9764,12.0009,11.9951,11.999,12.017,12.0341,12.0364,12.0309,12.0185,12.0299,12.0299,12.0194,12.0534,12.0402,12.044,12.0604,12.0947,12.0973,12.0997,12.1218,12.1275,12.1322,0,0,0,0,0,0,11.9779,11.9828,11.9944,11.9986,12.0025,12.0332,12.011,12.0101,12.0171,12.0148,12.0197,12.0195,12.015,12.0378,12.0414,12.057,12.027,12.0957,12.0979,12.0999,12.1238,12.1284,12.1323,0,0,0,0,0,11.9791,11.983,12.0134,11.9982,12.0016,12.0002,12.01,12.0091,12.0144,12.0144,12.0139,12.0096,12.0156,12.0182,12.0399,12.0555,12.0245,12.0259,12.0971,12.0988,12.1004,12.126,0,0,0,0,0,0,11.9799,11.9822,12.014,12.0148,11.9885,11.9983,11.9997,12.0083,12.0133,12.0131,12.0038,12.0019,12.0163,12.0182,12.0203,12.0553,12.0224,12.0238,12.0247,12.0984,12.0998,12.101,0,0,0,0,0,0,11.98,11.983,12.0144,12.0025,12.0019,11.9967,11.9979,12.0155,12.0136,12.0024,12.001,12.0029,12.013,12.0183,12.0199,12.0476,12.0209,12.0222,12.0231,12.0237,12.0995,12.1006,0,0,0,0,0,0,11.9812,11.9837,12.0022,12.0018,12.0012,12.0101,12.0121,12.0308,12.0037,12.0024,12.0011,11.9999,12.0135,12.0149,12.0197,12.0468,12.0474,12.0209,12.0218,12.0225,12.0229,0,0,0,0,0,0,0,11.9821,11.9665,12.0091,12.0012,12.0007,12.0226,12.0228,12.023,12.0034,12.0024,12.0014,12.0004,12.0133,12.0148,12.0162,12.0462,0,0,12.0208,12.0214,0,0,0,0,0,0,0,0,11.9653,11.9662,12.0091,12.0093,12.0095,12.0226,12.0228,12.023,12.0033,12.0024,12.0016,12.0008,12.0137,12.0149,12.0161,0,0,0,0,0,0,0,0,0,0,0,0,0,0,0,12.0091,12.0093,0,12.0226,12.0228,12.0229,12.0031,12.0024,12.0018,12.0011,12.0141,12.015,12.016,0,0,0,0,0,0,0,0,0,0,0,0,0,0,0,0,0,0,0,0,0,0,0,0,0,0,0,0,0,0,0,0,0,0,0,0,0,0,0,0,0,0,0,0,0,0,0,0,0,0,0,0,0,0,0,0,0,0,0,0,0,0,0,0,0,0,0,0,0]}],[{"header":{"parameterUnit":"kt","parameterCategory":2,"dx":1,"dy":1,"la1":30.253999710083008,"la2":30.299108505249023,"lo1":-89.0895004272461,"lo2":-89.04439544677734,"nx":28,"ny":28,"refTime":"2022-10-28T21:00:00:Z","depth":0,"parameterNumber":2,"parameterNumberName":"V-component_of_WINDS"},"data":[1.9451,1.9344,1.9283,1.9128,1.9046,1.8927,1.8864,1.8774,1.8684,1.8529,1.8427,1.8347,1.8227,1.8084,1.7965,1.793,1.7882,1.7891,1.7847,1.7877,1.7876,1.7875,1.7899,1.7882,1.7882,1.7826,1.7825,1.7825,1.9475,1.9395,1.9297,1.9159,1.9072,1.9027,1.891,1.8838,1.8731,1.862,1.8517,1.8372,1.8247,1.8121,1.7987,1.7927,1.7894,1.7895,1.7897,1.7877,1.7907,1.7933,1.7924,1.7924,1.7924,1.7924,1.7924,1.7924,1.9503,1.9442,1.9323,1.9215,1.9128,1.9033,1.8961,1.8868,1.8765,1.8625,1.8565,1.8439,1.8311,1.8116,1.8033,1.7928,1.7914,1.7892,1.7885,1.7881,1.7885,1.7971,1.7902,1.7902,1.7902,1.7902,1.7901,0,1.9503,1.9456,1.9358,1.9241,1.9158,1.9059,1.8956,1.8909,1.8779,1.8699,1.8577,1.8494,1.8327,1.82,1.8059,1.7975,1.7912,1.7899,1.7882,1.7909,1.7952,1.7925,1.7974,1.7901,1.79,1.79,1.79,1.79,1.9524,1.9461,1.9306,1.9245,1.9174,1.9076,1.9003,1.8894,1.882,1.8673,1.862,1.8493,1.8386,1.8193,1.8076,1.7948,1.7916,1.7895,1.7896,1.7925,1.7911,1.7915,1.7906,1.7897,1.7897,1.7897,1.7898,0,1.9541,1.944,1.932,1.9171,1.9131,1.9068,1.8936,1.8866,1.8782,1.8672,1.864,1.8504,1.8382,1.8268,1.8104,1.8047,1.7927,1.7901,1.7971,1.7959,1.7926,1.793,1.7846,1.7828,1.7847,1.7847,1.7847,0,1.9518,1.9437,1.929,1.9226,1.9131,1.9025,1.8932,1.885,1.8742,1.8654,1.857,1.8489,1.8355,1.8256,1.8171,1.8054,1.8024,1.7971,1.795,1.7978,1.7984,1.7932,1.7932,1.7907,1.7907,1.7908,1.7908,0,1.9554,1.9381,1.9276,1.922,1.9051,1.9002,1.8928,1.8806,1.8734,1.8622,1.8572,1.8447,1.8378,1.828,1.8174,1.8178,1.8029,1.8012,1.7975,1.7977,1.7945,1.7949,1.7906,1.7909,1.7909,1.7909,1.7909,0,1.9518,1.9416,1.928,1.9137,1.9095,1.9024,1.8898,1.8812,1.8688,1.8632,1.8542,1.847,1.8362,1.8354,1.8199,1.8236,1.817,1.8111,1.8106,1.8087,1.8081,1.8069,1.8043,1.8034,1.8072,1.8073,1.8074,0,1.9586,1.9423,1.9334,1.9205,1.9114,1.9027,1.8945,1.8839,1.8759,1.8665,1.8573,1.8465,1.8435,1.8385,1.8324,1.8223,1.8176,1.8226,1.8081,1.8078,1.8117,1.8092,1.8116,1.8062,1.809,1.8088,1.8087,0,1.9626,1.9427,1.9411,1.9341,1.919,1.9112,1.9019,1.8892,1.8835,1.8725,1.864,1.8486,1.8456,1.8375,1.8303,1.8245,1.8204,1.822,1.8215,1.8219,1.809,1.8113,1.8104,1.8167,1.8165,1.8164,1.81,0,1.9592,1.9498,1.9451,1.9303,1.9226,1.914,1.9026,1.8959,1.89,1.8817,1.8691,1.8572,1.8436,1.8398,1.8338,1.8245,1.8241,1.8211,1.8192,1.8178,1.8154,1.8144,1.8238,1.8237,1.8236,1.8235,0,0,1.968,1.9544,1.9449,1.9358,1.9287,1.9198,1.9116,1.9035,1.8873,1.8824,1.8814,1.858,1.8483,1.8341,1.8327,1.8273,1.8244,1.8254,1.8187,1.8182,1.8177,1.8153,1.8145,1.8233,1.8233,1.8232,1.8232,0,1.9645,1.956,1.9483,1.9397,1.9267,1.9184,1.9166,1.9019,1.8961,1.884,1.8763,1.8673,1.849,1.8396,1.8324,1.8269,1.8213,1.8237,1.8247,1.818,1.8177,1.8174,1.815,1.8144,1.8229,1.823,1.823,0,1.9663,1.9559,1.9511,1.935,1.9262,1.9169,1.9124,1.9029,1.8957,1.8858,1.8738,1.8656,1.8521,1.8404,1.8346,1.8334,1.8192,1.8216,1.822,1.821,1.8139,1.8135,1.8132,1.8177,1.8178,1.8178,0,0,1.9647,1.956,1.9413,1.9333,1.9284,1.9161,1.91,1.9035,1.8921,1.8875,1.8768,1.8655,1.8546,1.8476,1.8368,1.8257,1.8217,1.8215,1.8217,1.822,1.8212,1.8142,1.8138,1.8179,1.8179,1.8179,0,0,1.9637,1.9466,1.9429,1.9323,1.922,1.9065,1.9018,1.8967,1.886,1.8856,1.8736,1.8701,1.8589,1.851,1.8541,1.8358,1.8343,1.8333,1.8415,1.8416,1.8418,1.8438,1.8473,0,0,0,0,0,1.9544,1.9488,1.9456,1.9422,1.9215,1.9085,1.9056,1.896,1.8952,1.8917,1.8819,1.8764,1.8501,1.8526,1.849,1.8456,1.8195,1.8192,1.819,1.8268,1.827,1.8273,0,0,0,0,0,0,1.9529,1.9488,1.9457,1.9304,1.9256,1.9086,1.905,1.9022,1.8953,1.8945,1.8785,1.8759,1.8671,1.8537,1.8507,1.8476,1.8483,1.8194,1.8192,1.819,1.8269,1.8271,1.8273,0,0,0,0,0,1.9518,1.9484,1.918,1.9303,1.9262,1.9121,1.9051,1.9028,1.8972,1.8821,1.8793,1.8906,1.8673,1.864,1.8518,1.8493,1.8504,1.8492,1.8193,1.8191,1.8189,1.827,0,0,0,0,0,0,1.9509,1.9459,1.9169,1.9153,1.9318,1.9128,1.9096,1.9033,1.8849,1.8822,1.8936,1.8932,1.8673,1.8648,1.8623,1.8504,1.852,1.8509,1.8502,1.8191,1.819,1.8188,0,0,0,0,0,0,1.9476,1.9446,1.916,1.9185,1.917,1.9135,1.9107,1.8988,1.8848,1.8974,1.8965,1.8936,1.8708,1.8653,1.8633,1.8453,1.8533,1.8522,1.8515,1.851,1.819,1.8189,0,0,0,0,0,0,1.9461,1.9435,1.9189,1.9178,1.9165,1.8972,1.9028,1.8821,1.8876,1.8984,1.8878,1.8879,1.8715,1.8693,1.8641,1.8469,1.8457,1.8533,1.8526,1.852,1.8517,0,0,0,0,0,0,0,1.9449,1.965,1.9267,1.9171,1.916,1.9001,1.8996,1.8992,1.8876,1.8877,1.8878,1.8878,1.8595,1.8583,1.8571,1.8483,0,0,1.8534,1.8529,0,0,0,0,0,0,0,0,1.9658,1.9652,1.9267,1.9263,1.926,1.9,1.8996,1.8993,1.8876,1.8877,1.8878,1.8878,1.8592,1.8582,1.8572,0,0,0,0,0,0,0,0,0,0,0,0,0,0,0,1.9266,1.9264,0,1.9,1.8996,1.8993,1.8877,1.8877,1.8877,1.8878,1.8589,1.8581,1.8573,0,0,0,0,0,0,0,0,0,0,0,0,0,0,0,0,0,0,0,0,0,0,0,0,0,0,0,0,0,0,0,0,0,0,0,0,0,0,0,0,0,0,0,0,0,0,0,0,0,0,0,0,0,0,0,0,0,0,0,0,0,0,0,0,0,0,0,0,0]}]]]